Location: Middlebury
(44.0133°N, 73.1813°W)
Time: 02:54:54
(UTC-04:00)

Envisat - Pass Details

Date: 30 January 2022
Orbit: 764 x 765 km, 98.2° (Epoch: 21 May)

Event Time Altitude Azimuth Distance (km) Brightness Sun altitude
Rises 05:08:44 0° 10° (N) 3,241 6.3 -22.3°
Reaches altitude 10° 05:11:04 10° 7° (N) 2,311 5.5 -21.9°
Maximum altitude 05:16:05 63° 288° (WNW) 855 2.9 -21.0°
Drops below altitude 10° 05:21:05 10° 207° (SSW) 2,296 5.2 -20.1°
Sets 05:23:23 0° 205° (SSW) 3,218 6.0 -19.7°
